Cartersville, GA

3:41 PM EST on November 15, 2019 (GMT -0500)
Cartersville

Weather History for KVPC - September, 2019

Change the Weather History Date:

Friday, September 20, 2019

  Actual Average Record
Temperature  
Mean Temperature 73 °F 70 °F  
Max Temperature 84 °F 81 °F 96 °F (2010)
Min Temperature 61 °F 58 °F 48 °F (2004)
Degree Days  
Heating Degree Days 0 1  
Month to date heating degree days 0 2  
Since 1 July heating degree days 0 2  
Cooling Degree Days 8 5  
Month to date cooling degree days 317 168  
Year to date cooling degree days 1889 1433  
Growing Degree Days 23 (Base 50)    
Moisture  
Dew Point 55 °F    
Average Humidity 56    
Maximum Humidity 78    
Minimum Humidity 34    
Precipitation  
Precipitation 0.00 in 0.13 in 1.75 in (1953)
Month to date precipitation 0.01 2.31  
Year to date precipitation 31.55 36.90  
Sea Level Pressure  
Sea Level Pressure 30.23 in    
Wind  
Wind Speed 4 mph ()    
Max Wind Speed 12 mph    
Max Gust Speed 17 mph    
Visibility 10.0 miles    
Events      
T = Trace of Precipitation, MM = Missing Value Source: Averaged Metar Reports

Daily Weather History Graph

Daily Weather History Graph

Search for Another Location

Airport or City:

Astronomy

Sep. 20, 2019 Rise Set
Actual Time 7:25 AM EDT 7:39 PM EDT
Civil Twilight 7:00 AM EDT 8:04 PM EDT
Nautical Twilight 6:31 AM EDT 8:33 PM EDT
Astronomical Twilight 6:01 AM EDT 9:03 PM EDT
Moon 11:44 PM EDT (9/20) 1:14 PM EDT (9/20)
Length of Visible Light 13h 03m
Length of Day
12h 13m
Waning Gibbous, 65% of the Moon is Illuminated
Sep 20
Waning Gibbous
Sep 21
Last Quarter
Sep 28
New
Oct 5
First Quarter
Oct 13
Full

Hourly Weather History & Observations

Time (EDT) Temp. Heat Index Dew Point Humidity Pressure Visibility Wind Dir Wind Speed Gust Speed Precip Events Conditions
12:53 AM 70.0 °F - 55.9 °F 61% 30.20 in 10.0 mi Variable 5.8 mph - N/A   Overcast
1:53 AM 70.0 °F - 55.9 °F 61% 30.21 in 10.0 mi ENE 4.6 mph - N/A   Mostly Cloudy
2:53 AM 69.1 °F - 55.0 °F 61% 30.21 in 10.0 mi East 4.6 mph - N/A   Mostly Cloudy
3:53 AM 68.0 °F - 55.0 °F 63% 30.21 in 10.0 mi East 6.9 mph - N/A   Overcast
4:53 AM 66.0 °F - 55.0 °F 68% 30.22 in 10.0 mi ESE 4.6 mph - N/A   Clear
5:53 AM 64.9 °F - 55.0 °F 70% 30.22 in 10.0 mi ESE 5.8 mph - N/A   Clear
6:53 AM 64.0 °F - 55.0 °F 73% 30.25 in 10.0 mi Calm Calm - N/A   Clear
7:53 AM 63.0 °F - 55.0 °F 75% 30.27 in 10.0 mi Variable 3.5 mph - N/A   Clear
8:53 AM 66.9 °F - 55.9 °F 68% 30.28 in 10.0 mi East 4.6 mph - N/A   Clear
9:53 AM 71.1 °F - 55.0 °F 57% 30.29 in 10.0 mi East 6.9 mph - N/A   Clear
10:53 AM 73.9 °F - 53.1 °F 48% 30.30 in 10.0 mi ESE 8.1 mph - N/A   Scattered Clouds
11:53 AM 78.1 °F - 53.1 °F 42% 30.30 in 10.0 mi Variable 6.9 mph - N/A   Mostly Cloudy
12:53 PM 79.0 °F - 53.1 °F 40% 30.27 in 10.0 mi North - - N/A   Clear
1:53 PM 82.0 °F 81.2 °F 53.1 °F 37% 30.25 in 10.0 mi ESE 9.2 mph - N/A   Clear
2:53 PM 82.9 °F 81.9 °F 54.0 °F 37% 30.22 in 10.0 mi East 6.9 mph - N/A   Clear
3:53 PM 84.0 °F 82.6 °F 54.0 °F 35% 30.20 in 10.0 mi ESE 10.4 mph - N/A   Clear
4:53 PM 84.0 °F 82.9 °F 55.0 °F 37% 30.19 in 10.0 mi Variable 4.6 mph - N/A   Clear
5:53 PM 84.0 °F 82.9 °F 55.0 °F 37% 30.19 in 10.0 mi Variable 5.8 mph - N/A   Clear
6:53 PM 81.0 °F 80.7 °F 55.0 °F 41% 30.19 in 10.0 mi Variable 3.5 mph - N/A   Clear
7:53 PM 73.0 °F - 57.0 °F 57% 30.20 in 10.0 mi Calm Calm - N/A   Clear
8:53 PM 69.1 °F - 57.0 °F 65% 30.22 in 10.0 mi Calm Calm - N/A   Clear
9:53 PM 64.9 °F - 57.0 °F 75% 30.24 in 10.0 mi Calm Calm - N/A   Clear
10:53 PM 63.0 °F - 55.9 °F 78% 30.25 in 10.0 mi Calm Calm - N/A   Clear
11:53 PM 66.0 °F - 55.0 °F 68% 30.25 in 10.0 mi Calm Calm - N/A   Clear